Weather History for Bemidji, MN

Change the Weather History Date:

Saturday, November 16, 2013

  Actual Average Record
Temperature  
Mean Temperature 38 °F -  
Max Temperature 43 °F 36 °F 60 °F (1953)
Min Temperature 34 °F 20 °F -5 °F (1959)
Degree Days  
Heating Degree Days 26    
Moisture  
Dew Point 36 °F    
Average Humidity 89    
Maximum Humidity 100    
Minimum Humidity 75    
Precipitation  
Precipitation 0.03 in - - ()
Sea Level Pressure  
Sea Level Pressure 29.34 in    
Wind  
Wind Speed 9 mph (SE)    
Max Wind Speed 16 mph    
Max Gust Speed 26 mph    
Visibility 6 miles    
Events Rain    
Averages and records for this station are not official NWS values.
T = Trace of Precipitation, MM = Missing Value Source: NWS Daily Summary

Daily Weather History Graph

Daily Weather History Graph

Search for Another Location

Airport:

Trip Planner

Search our weather history database for the weather conditions in past years. The results will help you decide how hot, cold, wet, or windy it might be!

Date:

Astronomy

Nov. 16, 2013 Rise Set
Actual Time 7:26 AM CST 4:42 PM CST
Civil Twilight 6:52 AM CST 5:15 PM CST
Nautical Twilight 6:15 AM CST 5:53 PM CST
Astronomical Twilight 5:39 AM CST 6:29 PM CST
Moon 4:20 PM CST (11/16) 6:19 AM CST (11/16)
Length of Visible Light 10h 22m
Length of Day
9h 15m
Waxing Gibbous, 99% of the Moon is Illuminated
Nov 16
Waxing Gibbous
Nov 17
Full
Nov 25
Last Quarter
Dec 2
New
Dec 9
First Quarter

Hourly Weather History & Observations

Time (CST) Temp. Windchill Dew Point Humidity Pressure Visibility Wind Dir Wind Speed Gust Speed Precip Events Conditions
12:12 AM 42.8 °F 35.8 °F 35.8 °F 76% 29.45 in 10.0 mi South 13.8 mph 23.0 mph N/A   Overcast
12:31 AM 42.8 °F 35.8 °F 35.8 °F 76% 29.44 in 10.0 mi South 13.8 mph 20.7 mph N/A   Overcast
12:52 AM 42.4 °F 35.0 °F 35.6 °F 77% 29.43 in 10.0 mi South 15.0 mph 18.4 mph N/A   Overcast
1:12 AM 42.4 °F 36.1 °F 35.4 °F 76% 29.42 in 10.0 mi South 11.5 mph 26.5 mph N/A   Overcast
1:32 AM 42.4 °F 36.1 °F 34.9 °F 75% 29.41 in 10.0 mi South 11.5 mph 19.6 mph N/A   Overcast
1:51 AM 41.9 °F 34.6 °F 34.7 °F 76% 29.41 in 10.0 mi South 13.8 mph 18.4 mph N/A   Scattered Clouds
2:12 AM 41.4 °F 35.2 °F 34.5 °F 77% 29.41 in 10.0 mi South 10.4 mph 19.6 mph N/A   Clear
2:32 AM 40.6 °F 34.8 °F 34.2 °F 78% 29.40 in 10.0 mi South 9.2 mph - N/A   Clear
2:51 AM 40.1 °F 33.6 °F 34.0 °F 79% 29.39 in 10.0 mi South 10.4 mph - N/A   Clear
3:12 AM 40.1 °F 33.2 °F 34.0 °F 79% 29.39 in 10.0 mi South 11.5 mph 18.4 mph N/A   Clear
3:32 AM 40.1 °F 32.7 °F 34.0 °F 79% 29.38 in 10.0 mi South 12.7 mph 20.7 mph N/A   Clear
3:51 AM 40.1 °F 32.7 °F 34.0 °F 79% 29.38 in 10.0 mi South 12.7 mph - N/A   Clear
4:12 AM 39.6 °F 32.1 °F 34.0 °F 80% 29.37 in 10.0 mi South 12.7 mph - N/A   Clear
4:31 AM 39.4 °F 31.8 °F 33.8 °F 80% 29.37 in 10.0 mi South 12.7 mph 17.3 mph N/A   Clear
4:51 AM 39.2 °F 33.0 °F 33.8 °F 81% 29.38 in 10.0 mi South 9.2 mph - N/A   Clear
5:12 AM 39.2 °F 32.5 °F 33.8 °F 81% 29.37 in 10.0 mi South 10.4 mph 17.3 mph N/A   Clear
5:31 AM 38.5 °F 31.6 °F 33.8 °F 83% 29.37 in 10.0 mi South 10.4 mph - N/A   Clear
5:51 AM 37.8 °F 32.5 °F 33.6 °F 85% 29.38 in 10.0 mi South 6.9 mph - N/A   Clear
6:12 AM 37.4 °F 31.4 °F 33.4 °F 86% 29.37 in 10.0 mi South 8.1 mph - N/A   Clear
6:32 AM 36.9 °F 31.4 °F 33.3 °F 87% 29.37 in 10.0 mi South 6.9 mph - N/A   Clear
6:51 AM 36.5 °F 31.8 °F 33.3 °F 88% 29.38 in 10.0 mi South 5.8 mph - N/A   Clear
7:12 AM 36.1 °F 31.4 °F 33.1 °F 89% 29.38 in 10.0 mi South 5.8 mph - N/A   Clear
7:32 AM 35.4 °F 31.5 °F 32.9 °F 91% 29.38 in 7.0 mi South 4.6 mph - N/A   Clear
7:51 AM 35.4 °F 31.5 °F 32.9 °F 91% 29.39 in 7.0 mi South 4.6 mph - N/A   Mostly Cloudy
8:12 AM 34.9 °F 29.9 °F 32.9 °F 92% 29.39 in 7.0 mi South 5.8 mph - N/A   Mostly Cloudy
8:32 AM 36.0 °F 31.1 °F 33.4 °F 91% 29.38 in 7.0 mi SSE 5.8 mph - N/A   Mostly Cloudy
8:51 AM 36.5 °F 32.7 °F 34.2 °F 91% 29.38 in 7.0 mi SE 4.6 mph - N/A   Mostly Cloudy
9:12 AM 38.3 °F 33.9 °F 35.1 °F 88% 29.38 in 10.0 mi South 5.8 mph - N/A   Mostly Cloudy
9:31 AM 38.7 °F 35.2 °F 35.1 °F 87% 29.38 in 7.0 mi SSE 4.6 mph - N/A   Overcast
9:51 AM 39.6 °F 34.0 °F 35.6 °F 86% 29.38 in 7.0 mi SSE 8.1 mph - N/A   Overcast
10:12 AM 40.1 °F 35.3 °F 35.6 °F 84% 29.37 in 10.0 mi SSE 6.9 mph - N/A   Overcast
10:31 AM 40.6 °F 35.4 °F 36.1 °F 84% 29.38 in 10.0 mi SSE 8.1 mph - N/A   Overcast
10:51 AM 43.0 °F 36.8 °F 36.7 °F 78% 29.38 in 10.0 mi SSE 11.5 mph 17.3 mph N/A   Mostly Cloudy
11:12 AM 43.5 °F 36.1 °F 36.9 °F 77% 29.37 in 7.0 mi SE 16.1 mph - N/A   Scattered Clouds
11:31 AM 42.1 °F 35.2 °F 36.5 °F 81% 29.38 in 7.0 mi SSE 12.7 mph 19.6 mph N/A   Scattered Clouds
11:52 AM 42.1 °F 34.9 °F 36.5 °F 81% 29.36 in 7.0 mi South 13.8 mph 18.4 mph N/A   Mostly Cloudy
12:12 PM 41.2 °F 36.0 °F 36.5 °F 83% 29.36 in 7.0 mi SSE 8.1 mph - N/A   Overcast
12:31 PM 41.0 °F 38.0 °F 36.3 °F 83% 29.33 in 7.0 mi SE 4.6 mph - N/A   Overcast
12:51 PM 41.7 °F - 36.5 °F 82% 29.32 in 7.0 mi Calm Calm - N/A   Mostly Cloudy
1:12 PM 41.5 °F 37.1 °F 36.5 °F 82% 29.31 in 7.0 mi ENE 6.9 mph - N/A   Mostly Cloudy
1:31 PM 41.9 °F 36.9 °F 36.7 °F 82% 29.32 in 7.0 mi ESE 8.1 mph - N/A   Mostly Cloudy
1:52 PM 41.9 °F 37.5 °F 37.2 °F 83% 29.31 in 7.0 mi ESE 6.9 mph - N/A   Overcast
2:12 PM 41.5 °F 35.9 °F 37.0 °F 84% 29.31 in 7.0 mi ESE 9.2 mph - N/A   Overcast
2:31 PM 41.0 °F 35.8 °F 37.2 °F 86% 29.30 in 7.0 mi ESE 8.1 mph - N/A   Overcast
2:51 PM 40.1 °F 35.3 °F 37.6 °F 91% 29.30 in 5.0 mi ESE 6.9 mph - N/A   Overcast
3:12 PM 40.3 °F 34.9 °F 37.9 °F 91% 29.30 in 4.0 mi ESE 8.1 mph - N/A   Overcast
3:32 PM 40.1 °F 35.3 °F 38.3 °F 93% 29.30 in 5.0 mi ESE 6.9 mph - N/A   Overcast
3:51 PM 40.1 °F 38.0 °F 38.3 °F 93% 29.31 in 4.0 mi East 3.5 mph - N/A   Overcast
4:12 PM 39.6 °F 35.4 °F 38.7 °F 97% 29.30 in 1.8 mi East 5.8 mph - N/A   Overcast
4:31 PM 39.4 °F 35.2 °F 38.7 °F 97% 29.29 in 1.0 mi East 5.8 mph - N/A   Overcast
4:51 PM 39.2 °F 35.9 °F 38.7 °F 98% 29.29 in 1.0 mi East 4.6 mph - N/A   Overcast
5:12 PM 39.4 °F 37.2 °F 38.8 °F 98% 29.29 in 1.8 mi ENE 3.5 mph - N/A   Overcast
5:31 PM 39.2 °F 35.9 °F 38.8 °F 99% 29.29 in 1.5 mi ENE 4.6 mph - N/A   Overcast
5:52 PM 39.4 °F 37.2 °F 39.0 °F 99% 29.30 in 1.0 mi ENE 3.5 mph - N/A   Unknown
6:12 PM 39.2 °F 35.9 °F 38.8 °F 99% 29.29 in 0.8 mi East 4.6 mph - N/A   Unknown
6:31 PM 39.4 °F 36.1 °F 39.2 °F 99% 29.29 in 0.8 mi East 4.6 mph - N/A   Unknown
6:51 PM 39.4 °F 35.2 °F 39.2 °F 99% 29.28 in 1.0 mi East 5.8 mph - N/A   Unknown
7:12 PM 39.2 °F 35.9 °F 39.2 °F 100% 29.28 in 1.2 mi East 4.6 mph - N/A   Unknown
7:31 PM 39.4 °F 36.1 °F 39.2 °F 99% 29.27 in 1.2 mi East 4.6 mph - N/A Rain Rain
7:52 PM 39.4 °F 37.2 °F 39.2 °F 99% 29.27 in 1.0 mi East 3.5 mph - N/A Rain Light Rain
8:12 PM 39.4 °F 37.2 °F 39.2 °F 99% 29.27 in 1.0 mi ENE 3.5 mph - N/A Rain Light Rain
8:31 PM 39.6 °F 37.4 °F 39.4 °F 99% 29.27 in 1.0 mi ENE 3.5 mph - N/A Rain Light Rain
8:52 PM 39.4 °F 36.1 °F 39.2 °F 99% 29.27 in 1.0 mi ENE 4.6 mph - N/A Rain Light Rain
9:12 PM 39.6 °F 35.4 °F 39.4 °F 99% 29.26 in 1.2 mi ENE 5.8 mph - N/A   Overcast
9:31 PM 39.6 °F 37.4 °F 39.4 °F 99% 29.26 in 1.2 mi ENE 3.5 mph - N/A   Unknown
9:51 PM 39.4 °F 36.1 °F 39.2 °F 99% 29.26 in 1.2 mi NNE 4.6 mph - N/A   Unknown
10:12 PM 39.4 °F 37.2 °F 39.2 °F 99% 29.26 in 0.8 mi East 3.5 mph - N/A   Unknown
10:31 PM 39.2 °F 37.0 °F 39.2 °F 100% 29.25 in 0.5 mi ENE 3.5 mph - N/A   Unknown
10:51 PM 39.2 °F - 39.2 °F 100% 29.25 in 0.5 mi Calm Calm - N/A   Overcast
11:12 PM 39.2 °F - 39.2 °F 100% 29.25 in 0.5 mi Calm Calm - N/A Rain Rain
11:31 PM 39.2 °F - 39.2 °F 100% 29.25 in 0.5 mi Calm Calm - 0.01 in Rain Light Rain
11:52 PM 39.2 °F 37.0 °F 39.2 °F 100% 29.26 in 0.8 mi NW 3.5 mph - 0.03 in Rain Rain